Location: Unspecified
(50.7693°N, 0.0000°E)
Time: 06:49:14
(UTC+00:00)

SR - Pass Details

Date: 04 July 2019
Orbit: 580 x 876 km, 66.7° (Epoch: 17 July)

Event Time Altitude Azimuth Distance (km) Brightness Sun altitude
Rises 00:01:49 0° 177° (S) 2,786 - -16.3°
Reaches altitude 10° 00:04:23 10° 162° (SSE) 1,897 - -16.3°
Exits shadow 00:06:33 20° 133° (SE) 1,389 ? -16.3°
Maximum altitude 00:07:38 22° 112° (ESE) 1,318 ? -16.3°
Drops below altitude 10° 00:10:59 10° 61° (ENE) 1,962 ? -16.3°
Sets 00:13:41 0° 47° (NE) 2,910 ? -16.3°
